DW1234 Weather Reports


time (UTC)temp
C
wind
direction
speed
KPH
gust
KPH
rain 1hr
cm
rain 24hr
cm
rain mn
cm
humidity
%
barometer
mb
20260502194524 18 259 8.0 16.1 0.00 0.00 0.00 35 1019.9
20260502194225 18 254 4.8 19.3 0.00 0.00 0.00 37 1019.7
20260502193735 19 22 9.7 19.3 0.00 0.00 0.00 32 1019.8
20260502193228 18 172 9.7 24.1 0.00 0.00 0.00 29 1019.9
20260502193024 18 242 6.4 24.1 0.00 0.00 0.00 38 1020.2
20260502192801 18 252 14.5 24.1 0.00 0.00 0.00 36 1020.1
20260502192310 18 281 11.3 20.9 0.00 0.00 0.00 37 1020.0
20260502191731 18 269 4.8 17.7 0.00 0.00 0.00 38 1020.1
20260502191600 18 253 8.0 22.5 0.00 0.00 0.00 38 1020.4
20260502191240 18 223 9.7 22.5 0.00 0.00 0.00 36 1020.2
20260502190723 19 312 14.5 22.5 0.00 0.00 0.00 39 1020.2
20260502190234 17 17 4.8 20.9 0.00 0.00 0.00 36 1020.3
20260502190055 17 287 1.6 19.3 0.00 0.00 0.00 45 1020.7
20260502185749 18 5 12.9 22.5 0.00 0.00 0.00 37 1020.5
20260502185230 18 327 8.0 25.7 0.00 0.00 0.00 40 1020.7
20260502184741 18 325 9.7 25.7 0.00 0.00 0.00 39 1020.8
20260502184550 18 281 16.1 25.7 0.00 0.00 0.00 36 1021.1
20260502184227 18 355 14.5 24.1 0.00 0.00 0.00 35 1020.8
20260502183737 18 298 14.5 24.1 0.00 0.00 0.00 42 1020.9
20260502183245 17 288 4.8 14.5 0.00 0.00 0.00 37 1021.0
20260502183052 17 360 4.8 14.5 0.00 0.00 0.00 37 1021.3
20260502182727 17 323 9.7 14.5 0.00 0.00 0.00 43 1021.0
20260502182238 17 338 8.0 20.9 0.00 0.00 0.00 42 1021.1
20260502181722 17 309 12.9 25.7 0.00 0.00 0.00 38 1021.1
20260502181600 17 339 16.1 27.4 0.00 0.00 0.00 37 1021.5
20260502181507 17 292 16.1 27.4 0.00 0.00 0.00 37 1021.5
20260502181235 17 323 11.3 27.4 0.00 0.00 0.00 40 1021.2
20260502180804 17 302 11.3 27.4 0.00 0.00 0.00 35 1021.2
20260502180227 17 267 12.9 24.1 0.00 0.00 0.00 41 1021.2
20260502170226 16 325 4.8 16.1 0.00 0.00 0.00 43 1021.9
20260502164243 16 271 9.7 19.3 0.00 0.00 0.00 40 1022.1
20260502163725 15 263 8.0 19.3 0.00 0.00 0.00 42 1022.2
20260502163236 16 277 12.9 22.5 0.00 0.00 0.00 41 1022.3
20260502163035 15 294 9.7 22.5 0.00 0.00 0.00 41 1022.6
20260502162721 15 296 12.9 22.5 0.00 0.00 0.00 35 1022.2
20260502162233 15 273 12.9 24.1 0.00 0.00 0.00 43 1022.3
20260502161745 15 276 17.7 24.1 0.00 0.00 0.00 39 1022.4
20260502161541 15 275 8.0 24.1 0.00 0.00 0.00 45 1022.7
20260502161229 15 236 12.9 25.7 0.00 0.00 0.00 39 1022.5
20260502160739 15 315 14.5 25.7 0.00 0.00 0.00 41 1022.4
20260502160222 14 234 9.7 19.3 0.00 0.00 0.00 42 1022.5
20260502152247 13 244 11.3 17.7 0.00 0.00 0.00 43 1022.6
20260502151730 13 211 9.7 17.7 0.00 0.00 0.00 42 1022.6
20260502151609 13 219 8.0 17.7 0.00 0.00 0.00 44 1022.9
20260502151502 13 244 9.7 17.7 0.00 0.00 0.00 44 1023.0
20260502151246 13 239 11.3 19.3 0.00 0.00 0.00 47 1022.5
20260502150728 12 291 12.9 17.7 0.00 0.00 0.00 43 1022.5
20260502150239 13 214 11.3 16.1 0.00 0.00 0.00 45 1022.5
20260502130746 5 227 0.0 3.2 0.00 0.00 0.00 75 1022.7
20260502130232 4 227 1.6 4.8 0.00 0.00 0.00 74 1022.7
20260502123732 2 227 1.6 4.8 0.00 0.00 0.00 75 1022.6
20260502123243 2 227 3.2 4.8 0.00 0.00 0.00 75 1022.6
20260502123025 2 227 1.6 4.8 0.00 0.00 0.00 75 1023.0
20260502122726 2 227 3.2 4.8 0.00 0.00 0.00 75 1022.6
20260502122240 2 227 3.2 6.4 0.00 0.00 0.00 74 1022.6
20260502121751 2 227 4.8 6.4 0.00 0.00 0.00 74 1022.6
20260502121523 2 227 3.2 6.4 0.00 0.00 0.00 74 1023.0
20260502121229 2 227 4.8 6.4 0.00 0.00 0.00 73 1022.5
20260502120801 2 227 3.2 4.8 0.00 0.00 0.00 73 1022.5
20260502120224 2 227 3.2 4.8 0.00 0.00 0.00 74 1022.4
20260502115732 1 227 3.2 4.8 0.00 0.00 0.00 76 1022.3
20260502115244 1 227 3.2 6.4 0.00 0.00 0.00 76 1022.3
20260502114725 1 227 4.8 6.4 0.00 0.00 0.00 76 1022.3
20260502114509 1 227 3.2 4.8 0.00 0.00 0.00 76 1022.7
20260502114241 1 224 3.2 4.8 0.00 0.00 0.00 76 1022.3
20260502113724 1 224 4.8 6.4 0.00 0.00 0.00 76 1022.3
20260502113231 1 223 4.8 8.0 0.00 0.00 0.00 76 1022.2
20260502113024 1 223 3.2 8.0 0.00 0.00 0.00 76 1022.7
20260502112742 1 223 4.8 9.7 0.00 0.00 0.00 75 1022.3
20260502112224 1 229 6.4 9.7 0.00 0.00 0.00 75 1022.2
20260502111735 1 222 6.4 9.7 0.00 0.00 0.00 74 1022.2
20260502111532 1 219 6.4 8.0 0.00 0.00 0.00 74 1022.5
20260502111250 1 219 6.4 8.0 0.00 0.00 0.00 74 1022.0
20260502110731 2 219 6.4 8.0 0.00 0.00 0.00 74 1022.1
20260502110303 2 219 6.4 8.0 0.00 0.00 0.00 74 1022.2
20260502110059 1 201 4.8 6.4 0.00 0.00 0.00 74 1022.5
20260502110006 1 201 4.8 6.4 0.00 0.00 0.00 74 1022.4
20260502105721 2 200 4.8 6.4 0.00 0.00 0.00 75 1022.0
20260502105229 2 200 4.8 6.4 0.00 0.00 0.00 75 1022.0
20260502104801 2 200 3.2 6.4 0.00 0.00 0.00 74 1022.0
20260502104537 2 197 4.8 6.4 0.00 0.00 0.00 73 1022.4
20260502104223 2 200 4.8 8.0 0.00 0.00 0.00 72 1022.1
20260502103749 3 271 3.2 8.0 0.00 0.00 0.00 72 1022.2
20260502103233 3 276 4.8 8.0 0.00 0.00 0.00 71 1022.0
20260502103035 2 277 4.8 8.0 0.00 0.00 0.00 71 1022.4
20260502102745 3 300 6.4 8.0 0.00 0.00 0.00 71 1022.0
20260502102252 3 297 6.4 8.0 0.00 0.00 0.00 71 1021.9
20260502101743 3 300 3.2 6.4 0.00 0.00 0.00 71 1021.9
20260502101559 2 300 3.2 6.4 0.00 0.00 0.00 71 1022.3
20260502101230 3 327 4.8 6.4 0.00 0.00 0.00 71 1021.9
20260502100741 3 318 4.8 6.4 0.00 0.00 0.00 71 1021.8
20260502100224 3 324 4.8 6.4 0.00 0.00 0.00 71 1021.8
20260502091245 3 311 6.4 8.0 0.00 0.00 0.00 71 1021.7
20260502090727 3 311 4.8 8.0 0.00 0.00 0.00 71 1021.6
20260502090240 3 306 6.4 8.0 0.00 0.00 0.00 70 1021.6
20260502071534 5 338 4.8 6.4 0.00 0.00 0.00 56 1022.1
20260502071245 5 318 4.8 6.4 0.00 0.00 0.00 56 1021.8
20260502070734 5 318 4.8 6.4 0.00 0.00 0.00 56 1021.8
20260502070247 6 318 4.8 4.8 0.00 0.00 0.00 55 1021.8
20260502070017 5 318 3.2 6.4 0.00 0.00 0.00 54 1022.1
20260502065729 6 318 3.2 6.4 0.00 0.00 0.00 54 1021.8
20260502065300 6 318 3.2 6.4 0.00 0.00 0.00 54 1021.7
20260502064747 6 323 4.8 6.4 0.00 0.00 0.00 53 1021.8
20260502064556 5 323 3.2 6.4 0.00 0.00 0.00 53 1022.2
20260502064233 6 323 4.8 6.4 0.00 0.00 0.00 53 1021.8
20260502063743 6 323 4.8 6.4 0.00 0.00 0.00 53 1021.8
20260502063226 6 355 4.8 6.4 0.00 0.00 0.00 53 1021.8
20260502063006 5 355 3.2 4.8 0.00 0.00 0.00 53 1022.2
20260502062739 6 355 3.2 4.8 0.00 0.00 0.00 53 1021.8
20260502062248 6 355 3.2 4.8 0.00 0.00 0.00 52 1021.8
20260502061731 6 355 3.2 4.8 0.00 0.00 0.00 52 1021.8
20260502061507 5 355 1.6 4.8 0.00 0.00 0.00 52 1022.2
20260502061259 6 355 3.2 3.2 0.00 0.00 0.00 52 1021.8
20260502060749 6 355 3.2 3.2 0.00 0.00 0.00 51 1021.6
20260502060231 6 355 3.2 3.2 0.00 0.00 0.00 51 1021.6
20260502060052 5 355 1.6 3.2 0.00 0.00 0.00 51 1022.0
20260502055744 6 355 3.2 3.2 0.00 0.00 0.00 51 1021.6
20260502055227 6 355 3.2 3.2 0.00 0.00 0.00 51 1021.6
20260502054740 6 355 3.2 4.8 0.00 0.00 0.00 51 1021.5
20260502054559 5 355 1.6 4.8 0.00 0.00 0.00 51 1021.8
20260502054517 5 355 1.6 4.8 0.00 0.00 0.00 51 1021.8
20260502054226 6 355 3.2 4.8 0.00 0.00 0.00 51 1021.4
20260502053736 6 355 4.8 6.4 0.00 0.00 0.00 51 1021.4
20260502053304 6 355 4.8 4.8 0.00 0.00 0.00 51 1021.4
20260502053045 5 355 3.2 4.8 0.00 0.00 0.00 51 1021.8
20260502052727 6 355 4.8 4.8 0.00 0.00 0.00 51 1021.5
20260502052242 6 355 4.8 6.4 0.00 0.00 0.00 51 1021.4
20260502051737 6 355 4.8 6.4 0.00 0.00 0.00 50 1021.4
20260502051521 5 355 3.2 6.4 0.00 0.00 0.00 50 1021.8
20260502051257 6 355 4.8 6.4 0.00 0.00 0.00 50 1021.4
20260502050810 6 355 4.8 6.4 0.00 0.00 0.00 50 1021.4
20260502050243 6 355 4.8 6.4 0.00 0.00 0.00 49 1021.3
20260502050048 6 355 3.2 6.4 0.00 0.00 0.00 49 1021.7
20260502045801 6 355 4.8 6.4 0.00 0.00 0.00 50 1021.3
20260502045319 6 355 4.8 6.4 0.00 0.00 0.00 49 1021.3
20260502044722 6 355 3.2 4.8 0.00 0.00 0.00 49 1021.2
20260502044542 6 355 3.2 4.8 0.00 0.00 0.00 49 1021.5
20260502044235 6 355 3.2 4.8 0.00 0.00 0.00 49 1021.2
20260502043746 6 355 3.2 6.4 0.00 0.00 0.00 48 1021.2
20260502043225 6 355 3.2 6.4 0.00 0.00 0.00 48 1021.2
20260502043052 6 355 3.2 6.4 0.00 0.00 0.00 48 1021.5
20260502042736 7 355 4.8 6.4 0.00 0.00 0.00 48 1021.2
20260502042247 7 355 4.8 4.8 0.00 0.00 0.00 47 1021.3
20260502041739 7 355 4.8 6.4 0.00 0.00 0.00 47 1021.3
20260502041532 6 355 3.2 6.4 0.00 0.00 0.00 47 1021.6
20260502041223 7 355 4.8 6.4 0.00 0.00 0.00 47 1021.1
20260502040733 7 355 4.8 6.4 0.00 0.00 0.00 47 1021.2
20260502040245 7 341 4.8 6.4 0.00 0.00 0.00 47 1021.2
20260502040035 7 336 3.2 6.4 0.00 0.00 0.00 47 1021.5
20260502035724 7 349 4.8 6.4 0.00 0.00 0.00 46 1021.2
20260502035233 7 355 4.8 6.4 0.00 0.00 0.00 46 1021.2
20260502034745 7 355 4.8 6.4 0.00 0.00 0.00 46 1021.2
20260502034544 7 347 4.8 6.4 0.00 0.00 0.00 46 1021.5
20260502034230 7 347 6.4 6.4 0.00 0.00 0.00 46 1021.2
20260502033741 7 350 4.8 8.0 0.00 0.00 0.00 46 1021.2
20260502033226 7 346 4.8 8.0 0.00 0.00 0.00 46 1021.2
20260502033047 7 348 4.8 8.0 0.00 0.00 0.00 46 1021.5
20260502032758 8 344 4.8 8.0 0.00 0.00 0.00 46 1021.2
20260502032250 8 355 4.8 8.0 0.00 0.00 0.00 45 1021.0
20260502031729 8 349 4.8 8.0 0.00 0.00 0.00 45 1021.1
20260502031528 8 348 4.8 8.0 0.00 0.00 0.00 45 1021.4
20260502031243 8 348 6.4 8.0 0.00 0.00 0.00 45 1021.0
20260502030726 8 355 4.8 8.0 0.00 0.00 0.00 45 1021.0
20260502030238 8 350 6.4 8.0 0.00 0.00 0.00 44 1021.0
20260502030033 8 351 6.4 8.0 0.00 0.00 0.00 44 1021.3
20260502025750 8 355 6.4 8.0 0.00 0.00 0.00 44 1020.9
20260502025234 8 5 6.4 8.0 0.00 0.00 0.00 44 1020.8
20260502024747 8 355 6.4 8.0 0.00 0.00 0.00 44 1020.8
20260502024529 8 355 4.8 9.7 0.00 0.00 0.00 44 1021.1
20260502024233 9 355 6.4 9.7 0.00 0.00 0.00 43 1020.7
20260502023740 9 5 6.4 9.7 0.00 0.00 0.00 43 1020.6
20260502023224 9 360 8.0 12.9 0.00 0.00 0.00 43 1020.6
20260502023035 9 360 6.4 12.9 0.00 0.00 0.00 43 1020.9
20260502022735 9 355 8.0 14.5 0.00 0.00 0.00 43 1020.5
20260502022248 9 355 8.0 14.5 0.00 0.00 0.00 43 1020.5
20260502021731 10 360 8.0 14.5 0.00 0.00 0.00 43 1020.3
20260502021541 9 355 8.0 14.5 0.00 0.00 0.00 43 1020.7
20260502021246 10 9 9.7 17.7 0.00 0.00 0.00 42 1020.3
20260502020729 10 346 12.9 19.3 0.00 0.00 0.00 42 1020.3
20260502020240 10 355 14.5 19.3 0.00 0.00 0.00 42 1020.2
20260502020033 10 360 11.3 17.7 0.00 0.00 0.00 42 1020.6
20260502015725 10 355 11.3 17.7 0.00 0.00 0.00 41 1020.1
20260502015235 10 350 8.0 16.1 0.00 0.00 0.00 41 1020.0
20260502014747 10 355 9.7 16.1 0.00 0.00 0.00 41 1020.0
20260502014543 10 18 9.7 16.1 0.00 0.00 0.00 40 1020.3
20260502014232 10 360 9.7 16.1 0.00 0.00 0.00 40 1019.9
20260502013743 11 12 12.9 17.7 0.00 0.00 0.00 40 1019.8
20260502013223 11 22 9.7 17.7 0.00 0.00 0.00 39 1019.8
20260502013049 11 355 11.3 17.7 0.00 0.00 0.00 39 1020.1
20260502012733 11 350 11.3 16.1 0.00 0.00 0.00 39 1019.7
20260502012306 11 360 11.3 17.7 0.00 0.00 0.00 39 1019.7
20260502011722 11 355 12.9 20.9 0.00 0.00 0.00 38 1019.7
20260502011533 11 350 12.9 22.5 0.00 0.00 0.00 38 1019.9
20260502011235 11 355 14.5 25.7 0.00 0.00 0.00 38 1019.6
20260502010745 11 26 16.1 25.7 0.00 0.00 0.00 37 1019.5
20260502010230 12 341 16.1 25.7 0.00 0.00 0.00 37 1019.5
20260502010049 11 333 16.1 24.1 0.00 0.00 0.00 36 1019.7
20260502005740 12 344 19.3 24.1 0.00 0.00 0.00 36 1019.4
20260502005251 12 350 17.7 24.1 0.00 0.00 0.00 36 1019.4
20260502004734 12 10 14.5 27.4 0.00 0.00 0.00 35 1019.3
20260502004555 12 355 12.9 27.4 0.00 0.00 0.00 36 1019.6
20260502004247 12 355 20.9 27.4 0.00 0.00 0.00 36 1019.3
20260502003723 12 345 16.1 22.5 0.00 0.00 0.00 36 1019.3
20260502003234 12 344 11.3 29.0 0.00 0.00 0.00 35 1019.2
20260502003050 12 5 12.9 29.0 0.00 0.00 0.00 35 1019.5
20260502002807 13 341 17.7 29.0 0.00 0.00 0.00 34 1019.2
20260502002228 13 355 19.3 27.4 0.00 0.00 0.00 34 1019.1
20260502001739 13 321 20.9 27.4 0.00 0.00 0.00 34 1019.1
20260502001509 12 346 19.3 29.0 0.00 0.00 0.00 34 1019.5
20260502001227 13 338 19.3 38.6 0.00 0.00 0.00 34 1019.1
20260502000739 13 346 20.9 38.6 0.00 0.00 0.00 34 1019.1
20260502000248 13 355 20.9 30.6 0.00 0.00 0.00 34 1019.0
20260502000003 13 345 19.3 30.6 0.00 0.00 0.00 34 1019.4
20260501235731 13 348 20.9 30.6 0.00 0.00 0.00 33 1019.0
20260501235242 13 340 19.3 30.6 0.00 0.00 0.00 33 1019.0
20260501234728 13 5 22.5 30.6 0.00 0.00 0.00 33 1019.0
20260501234507 13 360 19.3 35.4 0.00 0.00 0.00 33 1019.4
20260501234238 13 327 19.3 38.6 0.00 0.00 0.00 33 1019.0
20260501233748 13 328 22.5 38.6 0.00 0.00 0.00 33 1019.0
20260501233233 13 341 24.1 32.2 0.00 0.00 0.00 33 1019.0
20260501233011 13 355 16.1 30.6 0.00 0.00 0.00 33 1019.3
20260501232747 13 347 17.7 33.8 0.00 0.00 0.00 33 1019.0
20260501232226 13 323 22.5 38.6 0.00 0.00 0.00 33 1019.0
20260501231737 14 342 25.7 38.6 0.00 0.00 0.00 34 1018.9
20260501231522 13 360 24.1 32.2 0.00 0.00 0.00 33 1019.2
20260501231222 13 355 22.5 32.2 0.00 0.00 0.00 33 1018.9
20260501230753 14 329 25.7 33.8 0.00 0.00 0.00 33 1018.9
20260501230245 14 5 24.1 37.0 0.00 0.00 0.00 33 1018.9
20260501230059 13 333 22.5 37.0 0.00 0.00 0.00 34 1019.2
20260501225729 14 350 22.5 35.4 0.00 0.00 0.00 35 1018.9
20260501225238 14 321 19.3 27.4 0.00 0.00 0.00 35 1018.8
20260501224723 14 332 17.7 40.2 0.00 0.00 0.00 35 1018.8
20260501224514 14 5 17.7 40.2 0.00 0.00 0.00 34 1019.2
20260501224233 14 338 19.3 40.2 0.00 0.00 0.00 33 1018.8
20260501223746 15 321 17.7 29.0 0.00 0.00 0.00 35 1018.8
20260501223231 15 349 19.3 33.8 0.00 0.00 0.00 34 1018.7
20260501223011 14 355 22.5 33.8 0.00 0.00 0.00 34 1019.1
20260501222743 15 348 20.9 33.8 0.00 0.00 0.00 34 1018.8
20260501222225 15 5 17.7 33.8 0.00 0.00 0.00 33 1018.8
20260501221737 15 18 20.9 35.4 0.00 0.00 0.00 32 1018.7
20260501221516 15 15 22.5 35.4 0.00 0.00 0.00 32 1019.1
20260501221251 15 347 24.1 33.8 0.00 0.00 0.00 33 1018.7
20260501220739 15 338 14.5 27.4 0.00 0.00 0.00 35 1018.7
20260501220223 15 348 16.1 32.2 0.00 0.00 0.00 34 1018.7
20260501220104 15 331 20.9 32.2 0.00 0.00 0.00 34 1019.0
20260501215735 15 316 17.7 32.2 0.00 0.00 0.00 33 1018.7
20260501215245 15 360 17.7 38.6 0.00 0.00 0.00 32 1018.7
20260501214730 15 332 25.7 38.6 0.00 0.00 0.00 32 1018.6
20260501214512 15 11 20.9 35.4 0.00 0.00 0.00 33 1019.0
20260501214245 15 290 16.1 32.2 0.00 0.00 0.00 34 1018.7
20260501213733 15 306 22.5 35.4 0.00 0.00 0.00 32 1018.9
20260501213243 16 328 20.9 25.7 0.00 0.00 0.00 33 1018.7
20260501213049 15 331 14.5 29.0 0.00 0.00 0.00 38 1019.0
20260501212722 15 5 17.7 32.2 0.00 0.00 0.00 34 1018.7
20260501212234 15 355 19.3 35.4 0.00 0.00 0.00 37 1018.7
20260501211747 15 341 24.1 35.4 0.00 0.00 0.00 35 1018.8
20260501211556 15 342 24.1 35.4 0.00 0.00 0.00 34 1019.0
20260501211234 16 345 12.9 30.6 0.00 0.00 0.00 37 1018.9
20260501210744 16 333 24.1 33.8 0.00 0.00 0.00 35 1018.8
20260501210227 15 5 16.1 33.8 0.00 0.00 0.00 36 1018.9
20260501210051 15 324 19.3 33.8 0.00 0.00 0.00 36 1019.2
20260501205759 16 313 16.1 30.6 0.00 0.00 0.00 37 1018.9
20260501205243 15 331 16.1 30.6 0.00 0.00 0.00 42 1019.0
20260501204734 15 355 16.1 33.8 0.00 0.00 0.00 41 1019.0
20260501204514 15 19 24.1 33.8 0.00 0.00 0.00 37 1019.3
20260501204248 15 36 22.5 33.8 0.00 0.00 0.00 37 1019.2
20260501203730 15 289 17.7 30.6 0.00 0.00 0.00 41 1019.1
20260501203241 16 309 19.3 33.8 0.00 0.00 0.00 38 1019.2
20260501203016 15 355 19.3 33.8 0.00 0.00 0.00 38 1019.6
20260501202726 15 329 17.7 33.8 0.00 0.00 0.00 39 1019.2
20260501202258 16 296 19.3 27.4 0.00 0.00 0.00 41 1019.2
20260501201721 16 331 9.7 29.0 0.00 0.00 0.00 39 1019.2
20260501201601 15 308 9.7 32.2 0.00 0.00 0.00 42 1019.6
20260501201230 16 342 20.9 32.2 0.00 0.00 0.00 38 1019.4
20260501200743 16 341 17.7 32.2 0.00 0.00 0.00 41 1019.3
20260501200227 16 281 17.7 29.0 0.00 0.00 0.00 39 1019.4
20260501200008 16 350 19.3 29.0 0.00 0.00 0.00 45 1019.7
20260501195739 16 345 20.9 29.0 0.00 0.00 0.00 41 1019.4
20260501195223 15 360 14.5 35.4 0.00 0.00 0.00 44 1019.3
20260501194734 15 323 25.7 35.4 0.00 0.00 0.00 39 1019.4